Time,TemperatureF,DewpointF,PressureIn,WindDirection,WindDirectionDegrees,WindSpeedMPH,WindSpeedGustMPH,Humidity,HourlyPrecipIn,Conditions,Clouds,dailyrainin,SoftwareType,DateUTC
2013-05-23 00:01:00,46.6,44.7,30.01,SSE,157,8.0,13.0,93,0.01,,---,0.34,VWS V14.00,2013-05-23 07:01:00,
2013-05-23 00:07:00,46.6,44.7,30.01,South,183,3.0,9.0,93,0.01,,---,0.00,VWS V14.00,2013-05-23 07:07:00,
2013-05-23 00:12:00,46.6,45.0,30.01,South,188,5.0,9.0,94,0.01,,---,0.00,VWS V14.00,2013-05-23 07:12:00,
2013-05-23 00:17:00,46.6,45.0,30.01,South,190,3.0,10.0,94,0.01,,---,0.00,VWS V14.00,2013-05-23 07:17:00,
2013-05-23 00:22:00,46.6,44.7,30.01,SSE,166,4.0,10.0,93,0.01,,---,0.00,VWS V14.00,2013-05-23 07:22:00,
2013-05-23 00:27:00,46.5,44.6,30.01,SE,140,6.0,10.0,93,0.01,,---,0.00,VWS V14.00,2013-05-23 07:27:00,
2013-05-23 00:32:00,46.4,44.5,30.01,South,191,5.0,11.0,93,0.01,,---,0.00,VWS V14.00,2013-05-23 07:32:00,
2013-05-23 00:37:00,46.5,44.6,30.01,South,181,2.0,10.0,93,0.00,,---,0.00,VWS V14.00,2013-05-23 07:37:00,
2013-05-23 00:42:00,46.5,44.6,30.01,SSW,211,4.0,10.0,93,0.00,,---,0.00,VWS V14.00,2013-05-23 07:42:00,
2013-05-23 00:47:00,46.4,44.5,30.01,SSW,205,6.0,10.0,93,0.00,,---,0.00,VWS V14.00,2013-05-23 07:47:00,
2013-05-23 00:52:00,46.4,44.5,30.01,SSW,200,3.0,10.0,93,0.00,,---,0.00,VWS V14.00,2013-05-23 07:52:00,
2013-05-23 00:57:00,46.4,44.8,30.01,SSW,201,6.0,10.0,94,0.01,,---,0.01,VWS V14.00,2013-05-23 07:57:00,
2013-05-23 01:02:00,46.4,44.8,30.01,SSW,212,2.0,10.0,94,0.01,,---,0.01,VWS V14.00,2013-05-23 08:02:00,
2013-05-23 01:07:00,46.4,44.8,30.01,SW,217,5.0,9.0,94,0.01,,---,0.01,VWS V14.00,2013-05-23 08:07:00,
2013-05-23 01:12:00,46.4,44.8,30.01,South,183,1.0,9.0,94,0.01,,---,0.01,VWS V14.00,2013-05-23 08:12:00,
2013-05-23 01:17:00,46.4,44.8,30.01,SSW,209,6.0,9.0,94,0.01,,---,0.01,VWS V14.00,2013-05-23 08:17:00,
2013-05-23 01:22:00,46.3,44.7,30.01,South,176,8.0,9.0,94,0.01,,---,0.01,VWS V14.00,2013-05-23 08:22:00,
2013-05-23 01:27:00,46.3,44.7,30.01,SSW,196,5.0,9.0,94,0.01,,---,0.01,VWS V14.00,2013-05-23 08:27:00,
2013-05-23 01:32:00,46.3,44.7,30.01,South,172,4.0,9.0,94,0.02,,---,0.02,VWS V14.00,2013-05-23 08:32:00,
2013-05-23 01:37:00,46.3,44.7,30.01,South,181,3.0,7.0,94,0.02,,---,0.02,VWS V14.00,2013-05-23 08:37:00,
2013-05-23 01:42:00,46.3,44.7,30.01,SSW,206,5.0,7.0,94,0.02,,---,0.02,VWS V14.00,2013-05-23 08:42:00,
2013-05-23 01:47:00,46.2,44.6,30.01,SSW,198,4.0,7.0,94,0.03,,---,0.03,VWS V14.00,2013-05-23 08:47:00,
2013-05-23 01:52:00,46.1,44.5,30.01,SSE,159,2.0,7.0,94,0.03,,---,0.03,VWS V14.00,2013-05-23 08:52:00,
2013-05-23 01:57:00,46.1,44.5,30.01,South,182,4.0,8.0,94,0.03,,---,0.03,VWS V14.00,2013-05-23 08:57:00,
2013-05-23 02:02:00,46.0,44.4,30.01,SSE,168,1.0,2.0,94,0.02,,---,0.03,VWS V14.00,2013-05-23 09:02:00,
2013-05-23 02:07:00,46.1,44.5,30.01,SSW,202,4.0,8.0,94,0.02,,---,0.03,VWS V14.00,2013-05-23 09:07:00,
2013-05-23 02:12:00,46.1,44.5,30.01,SSE,159,1.0,8.0,94,0.03,,---,0.04,VWS V14.00,2013-05-23 09:12:00,
2013-05-23 02:17:00,46.1,44.8,30.02,SSW,198,4.0,8.0,95,0.03,,---,0.04,VWS V14.00,2013-05-23 09:17:00,
2013-05-23 02:22:00,46.1,44.5,30.01,SSW,198,2.0,8.0,94,0.03,,---,0.04,VWS V14.00,2013-05-23 09:22:00,
2013-05-23 02:27:00,46.1,44.5,30.02,SE,142,4.0,8.0,94,0.03,,---,0.04,VWS V14.00,2013-05-23 09:27:00,
2013-05-23 02:32:00,46.0,44.4,30.01,SSE,159,4.0,4.0,94,0.02,,---,0.04,VWS V14.00,2013-05-23 09:32:00,
2013-05-23 02:37:00,46.0,44.7,30.01,South,191,3.0,7.0,95,0.03,,---,0.05,VWS V14.00,2013-05-23 09:37:00,
2013-05-23 02:42:00,45.9,44.5,30.02,SSW,195,3.0,7.0,95,0.03,,---,0.05,VWS V14.00,2013-05-23 09:42:00,
2013-05-23 02:47:00,45.9,44.5,30.02,SSW,211,4.0,7.0,95,0.03,,---,0.05,VWS V14.00,2013-05-23 09:47:00,
2013-05-23 02:52:00,46.0,44.7,30.01,South,184,4.0,8.0,95,0.03,,---,0.05,VWS V14.00,2013-05-23 09:52:00,
2013-05-23 02:57:00,46.0,44.7,30.01,South,176,2.0,8.0,95,0.03,,---,0.05,VWS V14.00,2013-05-23 09:57:00,
2013-05-23 03:02:00,46.1,44.8,30.01,SSW,192,3.0,4.0,95,0.02,,---,0.05,VWS V14.00,2013-05-23 10:02:00,
2013-05-23 03:07:00,46.0,44.7,30.01,South,189,3.0,6.0,95,0.02,,---,0.05,VWS V14.00,2013-05-23 10:07:00,
2013-05-23 03:12:00,45.9,44.5,30.01,South,171,2.0,6.0,95,0.03,,---,0.06,VWS V14.00,2013-05-23 10:12:00,
2013-05-23 03:17:00,45.9,44.5,30.01,South,187,4.0,7.0,95,0.03,,---,0.06,VWS V14.00,2013-05-23 10:17:00,
2013-05-23 03:22:00,45.9,44.5,30.01,SW,219,2.0,8.0,95,0.03,,---,0.06,VWS V14.00,2013-05-23 10:22:00,
2013-05-23 03:27:00,45.9,44.5,30.01,South,178,4.0,8.0,95,0.03,,---,0.06,VWS V14.00,2013-05-23 10:27:00,
2013-05-23 03:32:00,45.9,44.5,30.01,SSE,159,1.0,1.0,95,0.02,,---,0.06,VWS V14.00,2013-05-23 10:32:00,
2013-05-23 03:37:00,46.0,44.7,30.02,SSW,212,5.0,7.0,95,0.02,,---,0.06,VWS V14.00,2013-05-23 10:37:00,
2013-05-23 03:42:00,45.9,44.5,30.02,South,188,3.0,7.0,95,0.02,,---,0.06,VWS V14.00,2013-05-23 10:42:00,
2013-05-23 03:47:00,45.9,44.5,30.02,South,178,1.0,7.0,95,0.02,,---,0.06,VWS V14.00,2013-05-23 10:47:00,
2013-05-23 03:52:00,45.9,44.5,30.02,SE,145,2.0,7.0,95,0.02,,---,0.06,VWS V14.00,2013-05-23 10:52:00,
2013-05-23 03:57:00,45.8,44.5,30.01,South,188,3.0,7.0,95,0.02,,---,0.06,VWS V14.00,2013-05-23 10:57:00,
2013-05-23 04:02:00,45.9,44.5,30.01,South,169,2.0,3.0,95,0.01,,---,0.06,VWS V14.00,2013-05-23 11:02:00,
2013-05-23 04:07:00,45.9,44.5,30.01,South,178,4.0,4.0,95,0.01,,---,0.06,VWS V14.00,2013-05-23 11:07:00,
2013-05-23 04:12:00,45.9,44.5,30.01,SW,217,4.0,6.0,95,0.01,,---,0.06,VWS V14.00,2013-05-23 11:12:00,
2013-05-23 04:17:00,45.8,44.5,30.01,South,182,4.0,6.0,95,0.01,,---,0.06,VWS V14.00,2013-05-23 11:17:00,
2013-05-23 04:22:00,45.9,44.5,30.02,SSE,154,1.0,6.0,95,0.01,,---,0.06,VWS V14.00,2013-05-23 11:22:00,
2013-05-23 04:27:00,45.8,44.5,30.02,SSW,194,3.0,6.0,95,0.01,,---,0.06,VWS V14.00,2013-05-23 11:27:00,
2013-05-23 04:32:00,45.8,44.5,30.02,SSE,151,4.0,4.0,95,0.00,,---,0.06,VWS V14.00,2013-05-23 11:32:00,
2013-05-23 04:37:00,45.9,44.5,30.02,South,187,5.0,6.0,95,0.00,,---,0.06,VWS V14.00,2013-05-23 11:37:00,
2013-05-23 04:42:00,45.8,44.2,30.02,South,173,1.0,6.0,94,0.00,,---,0.06,VWS V14.00,2013-05-23 11:42:00,
2013-05-23 04:47:00,45.9,44.5,30.01,SSE,166,2.0,6.0,95,0.00,,---,0.06,VWS V14.00,2013-05-23 11:47:00,
2013-05-23 04:52:00,45.9,44.5,30.02,South,190,2.0,6.0,95,0.00,,---,0.06,VWS V14.00,2013-05-23 11:52:00,
2013-05-23 04:57:00,45.8,44.2,30.02,SSW,201,3.0,6.0,94,0.00,,---,0.06,VWS V14.00,2013-05-23 11:57:00,
2013-05-23 05:02:00,45.9,44.5,30.02,South,188,4.0,4.0,95,0.00,,---,0.06,VWS V14.00,2013-05-23 12:02:00,
2013-05-23 05:07:00,45.8,44.2,30.02,SSE,164,2.0,6.0,94,0.00,,---,0.06,VWS V14.00,2013-05-23 12:07:00,
2013-05-23 05:12:00,45.7,44.1,30.01,SSE,165,2.0,6.0,94,0.00,,---,0.06,VWS V14.00,2013-05-23 12:12:00,
2013-05-23 05:17:00,45.7,44.1,30.02,South,171,2.0,7.0,94,0.01,,---,0.07,VWS V14.00,2013-05-23 12:17:00,
2013-05-23 05:22:00,45.8,44.2,30.02,SSE,164,5.0,7.0,94,0.01,,---,0.07,VWS V14.00,2013-05-23 12:22:00,
2013-05-23 05:27:00,45.9,44.5,30.01,South,170,1.0,7.0,95,0.01,,---,0.07,VWS V14.00,2013-05-23 12:27:00,
2013-05-23 05:32:00,45.9,44.3,30.02,South,184,2.0,4.0,94,0.01,,---,0.07,VWS V14.00,2013-05-23 12:32:00,
2013-05-23 05:37:00,45.9,44.3,30.02,SSE,167,4.0,5.0,94,0.01,,---,0.07,VWS V14.00,2013-05-23 12:37:00,
2013-05-23 05:42:00,45.8,44.2,30.02,SSW,204,3.0,7.0,94,0.01,,---,0.07,VWS V14.00,2013-05-23 12:42:00,
2013-05-23 05:47:00,45.8,44.2,30.02,SSW,192,2.0,7.0,94,0.01,,---,0.07,VWS V14.00,2013-05-23 12:47:00,
2013-05-23 05:52:00,45.8,44.2,30.02,South,190,3.0,7.0,94,0.01,,---,0.07,VWS V14.00,2013-05-23 12:52:00,
2013-05-23 05:57:00,45.8,44.2,30.01,SSE,165,2.0,7.0,94,0.01,,---,0.07,VWS V14.00,2013-05-23 12:57:00,
2013-05-23 06:02:00,45.7,43.8,30.01,SSE,150,4.0,5.0,93,0.01,,---,0.07,VWS V14.00,2013-05-23 13:02:00,
2013-05-23 06:08:00,45.8,43.9,30.01,South,173,4.0,6.0,93,0.01,,---,0.07,VWS V14.00,2013-05-23 13:08:00,
2013-05-23 06:13:00,45.8,44.2,30.02,SSE,163,2.0,6.0,94,0.01,,---,0.07,VWS V14.00,2013-05-23 13:13:00,
2013-05-23 06:18:00,45.9,44.0,30.02,SE,146,1.0,6.0,93,0.01,,---,0.07,VWS V14.00,2013-05-23 13:18:00,
2013-05-23 06:23:00,46.0,44.1,30.02,South,179,2.0,6.0,93,0.01,,---,0.07,VWS V14.00,2013-05-23 13:23:00,
2013-05-23 06:28:00,46.1,44.2,30.02,South,188,4.0,9.0,93,0.01,,---,0.07,VWS V14.00,2013-05-23 13:28:00,
2013-05-23 06:33:00,46.2,44.3,30.02,South,191,2.0,4.0,93,0.00,,---,0.07,VWS V14.00,2013-05-23 13:33:00,
2013-05-23 06:38:00,46.3,44.4,30.02,South,173,5.0,5.0,93,0.00,,---,0.07,VWS V14.00,2013-05-23 13:38:00,
2013-05-23 06:43:00,46.3,44.4,30.02,SSW,192,2.0,6.0,93,0.00,,---,0.07,VWS V14.00,2013-05-23 13:43:00,
2013-05-23 06:48:00,46.5,44.6,30.03,SSE,166,6.0,7.0,93,0.00,,---,0.07,VWS V14.00,2013-05-23 13:48:00,
2013-05-23 06:53:00,46.4,44.2,30.03,South,176,2.0,8.0,92,0.00,,---,0.07,VWS V14.00,2013-05-23 13:53:00,
2013-05-23 06:58:00,46.5,44.3,30.03,SSW,192,2.0,8.0,92,0.00,,---,0.07,VWS V14.00,2013-05-23 13:58:00,
2013-05-23 07:03:00,46.6,44.7,30.03,SSW,200,1.0,5.0,93,0.00,,---,0.07,VWS V14.00,2013-05-23 14:03:00,
2013-05-23 07:08:00,46.7,44.8,30.04,SSW,197,3.0,6.0,93,0.00,,---,0.07,VWS V14.00,2013-05-23 14:08:00,
2013-05-23 07:13:00,46.7,44.5,30.04,SE,136,4.0,6.0,92,0.00,,---,0.07,VWS V14.00,2013-05-23 14:13:00,
2013-05-23 07:18:00,46.6,44.1,30.04,SSW,195,6.0,6.0,91,0.00,,---,0.07,VWS V14.00,2013-05-23 14:18:00,
2013-05-23 07:23:00,46.6,44.4,30.04,SSE,161,4.0,8.0,92,0.00,,---,0.07,VWS V14.00,2013-05-23 14:23:00,
2013-05-23 07:28:00,46.6,44.4,30.03,SSE,167,4.0,8.0,92,0.00,,---,0.07,VWS V14.00,2013-05-23 14:28:00,
2013-05-23 07:33:00,46.6,44.4,30.04,South,178,7.0,8.0,92,0.00,,---,0.07,VWS V14.00,2013-05-23 14:33:00,
2013-05-23 07:38:00,46.6,44.4,30.04,SSE,165,2.0,8.0,92,0.00,,---,0.07,VWS V14.00,2013-05-23 14:38:00,
2013-05-23 07:43:00,46.6,44.7,30.04,SE,138,6.0,8.0,93,0.00,,---,0.07,VWS V14.00,2013-05-23 14:43:00,
2013-05-23 07:48:00,46.7,44.8,30.04,South,191,3.0,8.0,93,0.00,,---,0.07,VWS V14.00,2013-05-23 14:48:00,
2013-05-23 07:53:00,46.7,44.8,30.04,South,175,1.0,8.0,93,0.00,,---,0.07,VWS V14.00,2013-05-23 14:53:00,
2013-05-23 07:58:00,46.8,44.9,30.04,SSW,200,3.0,8.0,93,0.00,,---,0.07,VWS V14.00,2013-05-23 14:58:00,
2013-05-23 08:03:00,46.8,44.9,30.04,SSE,160,2.0,4.0,93,0.00,,---,0.07,VWS V14.00,2013-05-23 15:03:00,
2013-05-23 08:08:00,46.8,44.6,30.04,SSW,192,2.0,7.0,92,0.00,,---,0.07,VWS V14.00,2013-05-23 15:08:00,
2013-05-23 08:13:00,46.8,44.6,30.04,SE,143,5.0,7.0,92,0.00,,---,0.07,VWS V14.00,2013-05-23 15:13:00,
2013-05-23 08:18:00,46.9,44.7,30.05,SW,225,4.0,7.0,92,0.00,,---,0.07,VWS V14.00,2013-05-23 15:18:00,
2013-05-23 08:23:00,47.0,44.8,30.04,South,186,2.0,7.0,92,0.00,,---,0.07,VWS V14.00,2013-05-23 15:23:00,
2013-05-23 08:28:00,47.0,44.5,30.04,South,173,4.0,10.0,91,0.00,,---,0.07,VWS V14.00,2013-05-23 15:28:00,
2013-05-23 08:33:00,47.2,44.7,30.04,SE,143,4.0,7.0,91,0.00,,---,0.07,VWS V14.00,2013-05-23 15:33:00,
2013-05-23 08:38:00,47.4,45.2,30.04,SSE,159,4.0,7.0,92,0.00,,---,0.07,VWS V14.00,2013-05-23 15:38:00,
2013-05-23 08:43:00,47.5,45.0,30.04,SSE,167,4.0,7.0,91,0.00,,---,0.07,VWS V14.00,2013-05-23 15:43:00,
2013-05-23 08:48:00,47.6,45.1,30.04,SE,142,6.0,8.0,91,0.00,,---,0.07,VWS V14.00,2013-05-23 15:48:00,
2013-05-23 08:53:00,47.8,45.0,30.05,SSW,213,6.0,12.0,90,0.00,,---,0.07,VWS V14.00,2013-05-23 15:53:00,
2013-05-23 08:58:00,48.0,45.2,30.05,SSE,166,5.0,12.0,90,0.00,,---,0.07,VWS V14.00,2013-05-23 15:58:00,
2013-05-23 09:03:00,48.3,45.5,30.04,SE,142,6.0,6.0,90,0.00,,---,0.07,VWS V14.00,2013-05-23 16:03:00,
2013-05-23 09:08:00,48.8,45.4,30.05,South,186,4.0,10.0,88,0.00,,---,0.07,VWS V14.00,2013-05-23 16:08:00,
2013-05-23 09:13:00,49.2,45.5,30.04,WSW,245,2.0,10.0,87,0.00,,---,0.07,VWS V14.00,2013-05-23 16:13:00,
2013-05-23 09:18:00,49.4,46.0,30.04,South,169,1.0,10.0,88,0.00,,---,0.07,VWS V14.00,2013-05-23 16:18:00,
2013-05-23 09:23:00,49.6,45.6,30.05,South,178,2.0,10.0,86,0.00,,---,0.07,VWS V14.00,2013-05-23 16:23:00,
2013-05-23 09:28:00,49.6,45.6,30.05,South,183,5.0,10.0,86,0.00,,---,0.07,VWS V14.00,2013-05-23 16:28:00,
2013-05-23 09:33:00,49.6,45.3,30.04,SSE,159,8.0,11.0,85,0.00,,---,0.07,VWS V14.00,2013-05-23 16:33:00,
2013-05-23 09:38:00,49.7,45.4,30.04,SSW,192,3.0,11.0,85,0.00,,---,0.07,VWS V14.00,2013-05-23 16:38:00,
2013-05-23 09:43:00,49.7,45.1,30.04,SE,145,6.0,11.0,84,0.00,,---,0.07,VWS V14.00,2013-05-23 16:43:00,
2013-05-23 09:48:00,49.7,44.8,30.04,South,186,8.0,13.0,83,0.00,,---,0.07,VWS V14.00,2013-05-23 16:48:00,
2013-05-23 09:53:00,49.7,44.8,30.03,South,171,6.0,13.0,83,0.00,,---,0.07,VWS V14.00,2013-05-23 16:53:00,
2013-05-23 09:58:00,49.8,45.2,30.04,South,178,4.0,13.0,84,0.00,,---,0.07,VWS V14.00,2013-05-23 16:58:00,
2013-05-23 10:03:00,50.1,45.8,30.03,SSW,196,5.0,6.0,85,0.00,,---,0.07,VWS V14.00,2013-05-23 17:03:00,
2013-05-23 10:08:00,50.1,45.5,30.04,SSW,197,2.0,9.0,84,0.00,,---,0.07,VWS V14.00,2013-05-23 17:08:00,
2013-05-23 10:13:00,50.3,45.7,30.04,South,177,8.0,9.0,84,0.00,,---,0.07,VWS V14.00,2013-05-23 17:13:00,
2013-05-23 10:18:00,50.5,45.5,30.03,South,183,5.0,9.0,83,0.00,,---,0.07,VWS V14.00,2013-05-23 17:18:00,
2013-05-23 10:23:00,50.7,45.7,30.03,SSE,147,7.0,10.0,83,0.00,,---,0.07,VWS V14.00,2013-05-23 17:23:00,
2013-05-23 10:28:00,51.0,45.7,30.03,South,180,7.0,10.0,82,0.00,,---,0.07,VWS V14.00,2013-05-23 17:28:00,
2013-05-23 10:33:00,51.4,46.4,30.03,South,172,11.0,11.0,83,0.00,,---,0.07,VWS V14.00,2013-05-23 17:33:00,
2013-05-23 10:38:00,51.6,46.0,30.03,South,186,4.0,11.0,81,0.00,,---,0.07,VWS V14.00,2013-05-23 17:38:00,
2013-05-23 10:43:00,51.6,45.3,30.04,SSE,158,10.0,12.0,79,0.00,,---,0.07,VWS V14.00,2013-05-23 17:43:00,
2013-05-23 10:48:00,51.6,45.6,30.03,South,187,6.0,12.0,80,0.00,,---,0.07,VWS V14.00,2013-05-23 17:48:00,
2013-05-23 10:53:00,51.7,45.7,30.03,SSW,194,3.0,12.0,80,0.00,,---,0.07,VWS V14.00,2013-05-23 17:53:00,
2013-05-23 10:58:00,51.8,45.5,30.03,SSW,195,5.0,12.0,79,0.00,,---,0.07,VWS V14.00,2013-05-23 17:58:00,
2013-05-23 11:03:00,51.7,45.4,30.03,SSE,159,10.0,12.0,79,0.00,,---,0.07,VWS V14.00,2013-05-23 18:03:00,
2013-05-23 11:08:00,51.7,45.4,30.04,South,182,5.0,12.0,79,0.00,,---,0.07,VWS V14.00,2013-05-23 18:08:00,
2013-05-23 11:13:00,51.8,45.5,30.03,SSW,199,2.0,12.0,79,0.00,,---,0.07,VWS V14.00,2013-05-23 18:13:00,
2013-05-23 11:18:00,52.0,46.4,30.04,ESE,119,4.0,12.0,81,0.00,,---,0.07,VWS V14.00,2013-05-23 18:18:00,
2013-05-23 11:23:00,52.1,45.8,30.04,SSE,160,5.0,13.0,79,0.00,,---,0.07,VWS V14.00,2013-05-23 18:23:00,
2013-05-23 11:28:00,52.0,46.4,30.03,SSE,154,5.0,13.0,81,0.00,,---,0.07,VWS V14.00,2013-05-23 18:28:00,
2013-05-23 11:33:00,52.0,45.4,30.04,South,178,7.0,11.0,78,0.00,,---,0.07,VWS V14.00,2013-05-23 18:33:00,
2013-05-23 11:38:00,51.9,45.6,30.04,South,181,4.0,11.0,79,0.00,,---,0.07,VWS V14.00,2013-05-23 18:38:00,
2013-05-23 11:44:00,52.0,45.7,30.03,SSW,196,3.0,11.0,79,0.00,,---,0.07,VWS V14.00,2013-05-23 18:44:00,
2013-05-23 11:49:00,52.2,46.2,30.03,SSE,151,5.0,11.0,80,0.00,,---,0.07,VWS V14.00,2013-05-23 18:49:00,
2013-05-23 11:54:00,52.5,46.2,30.04,South,171,5.0,11.0,79,0.00,,---,0.07,VWS V14.00,2013-05-23 18:54:00,
2013-05-23 11:59:00,52.7,46.0,30.03,South,184,5.0,12.0,78,0.00,,---,0.07,VWS V14.00,2013-05-23 18:59:00,
2013-05-23 12:04:00,53.1,46.8,30.03,SSE,149,6.0,11.0,79,0.00,,---,0.07,VWS V14.00,2013-05-23 19:04:00,
2013-05-23 12:09:00,53.1,46.1,30.04,SSE,167,5.0,12.0,77,0.00,,---,0.07,VWS V14.00,2013-05-23 19:09:00,
2013-05-23 12:14:00,53.2,46.2,30.03,SE,136,7.0,12.0,77,0.00,,---,0.07,VWS V14.00,2013-05-23 19:14:00,
2013-05-23 12:19:00,53.3,45.9,30.03,South,190,12.0,13.0,76,0.00,,---,0.07,VWS V14.00,2013-05-23 19:19:00,
2013-05-23 12:24:00,53.2,45.8,30.03,SSE,168,8.0,13.0,76,0.00,,---,0.07,VWS V14.00,2013-05-23 19:24:00,
2013-05-23 12:29:00,53.4,46.0,30.03,SSE,161,4.0,13.0,76,0.00,,---,0.07,VWS V14.00,2013-05-23 19:29:00,
2013-05-23 12:34:00,53.7,46.3,30.03,South,188,8.0,9.0,76,0.00,,---,0.07,VWS V14.00,2013-05-23 19:34:00,
2013-05-23 12:39:00,53.9,46.2,30.03,SW,225,3.0,14.0,75,0.00,,---,0.07,VWS V14.00,2013-05-23 19:39:00,
2013-05-23 12:44:00,54.0,45.2,30.03,SE,138,7.0,14.0,72,0.00,,---,0.07,VWS V14.00,2013-05-23 19:44:00,
2013-05-23 12:49:00,53.8,45.0,30.03,SSW,193,9.0,14.0,72,0.00,,---,0.07,VWS V14.00,2013-05-23 19:49:00,
2013-05-23 12:54:00,53.9,45.8,30.03,South,179,8.0,14.0,74,0.00,,---,0.07,VWS V14.00,2013-05-23 19:54:00,
2013-05-23 12:59:00,54.1,46.0,30.03,South,171,9.0,14.0,74,0.00,,---,0.07,VWS V14.00,2013-05-23 19:59:00,
2013-05-23 13:04:00,54.3,46.2,30.03,SSW,209,6.0,8.0,74,0.00,,---,0.07,VWS V14.00,2013-05-23 20:04:00,
2013-05-23 13:09:00,54.7,46.2,30.03,South,189,2.0,12.0,73,0.00,,---,0.07,VWS V14.00,2013-05-23 20:09:00,
2013-05-23 13:14:00,54.8,46.3,30.03,WSW,245,4.0,13.0,73,0.00,,---,0.07,VWS V14.00,2013-05-23 20:14:00,
2013-05-23 13:19:00,55.0,46.2,30.03,SSW,195,3.0,13.0,72,0.00,,---,0.07,VWS V14.00,2013-05-23 20:19:00,
2013-05-23 13:24:00,54.9,45.7,30.02,SSE,148,10.0,13.0,71,0.00,,---,0.07,VWS V14.00,2013-05-23 20:24:00,
2013-05-23 13:29:00,55.0,46.2,30.02,SE,134,11.0,13.0,72,0.00,,---,0.07,VWS V14.00,2013-05-23 20:29:00,
2013-05-23 13:34:00,55.2,46.0,30.02,South,169,4.0,13.0,71,0.00,,---,0.07,VWS V14.00,2013-05-23 20:34:00,
2013-05-23 13:39:00,55.5,46.6,30.02,SW,217,3.0,13.0,72,0.00,,---,0.07,VWS V14.00,2013-05-23 20:39:00,
2013-05-23 13:44:00,55.7,45.7,30.02,South,184,8.0,13.0,69,0.00,,---,0.07,VWS V14.00,2013-05-23 20:44:00,
2013-05-23 13:49:00,55.9,45.9,30.02,South,183,7.0,13.0,69,0.00,,---,0.07,VWS V14.00,2013-05-23 20:49:00,
2013-05-23 13:54:00,55.9,45.9,30.02,SSW,205,5.0,13.0,69,0.00,,---,0.07,VWS V14.00,2013-05-23 20:54:00,
2013-05-23 13:59:00,55.7,45.7,30.02,SSW,200,4.0,13.0,69,0.00,,---,0.07,VWS V14.00,2013-05-23 20:59:00,
2013-05-23 14:04:00,55.7,46.8,30.02,South,175,9.0,10.0,72,0.00,,---,0.07,VWS V14.00,2013-05-23 21:04:00,
2013-05-23 14:09:00,55.7,46.8,30.02,SSE,157,4.0,12.0,72,0.00,,---,0.07,VWS V14.00,2013-05-23 21:09:00,
2013-05-23 14:14:00,56.1,46.8,30.02,South,169,4.0,12.0,71,0.00,,---,0.07,VWS V14.00,2013-05-23 21:14:00,
2013-05-23 14:19:00,56.1,46.1,30.02,SSW,209,5.0,12.0,69,0.00,,---,0.07,VWS V14.00,2013-05-23 21:19:00,
2013-05-23 14:24:00,56.2,46.9,30.02,SSW,203,3.0,13.0,71,0.00,,---,0.07,VWS V14.00,2013-05-23 21:24:00,
2013-05-23 14:29:00,56.4,46.0,30.02,SSW,194,5.0,16.0,68,0.00,,---,0.07,VWS V14.00,2013-05-23 21:29:00,
2013-05-23 14:34:00,56.5,46.1,30.02,SW,216,4.0,9.0,68,0.00,,---,0.07,VWS V14.00,2013-05-23 21:34:00,
2013-05-23 14:39:00,56.8,46.4,30.02,South,191,4.0,9.0,68,0.00,,---,0.07,VWS V14.00,2013-05-23 21:39:00,
2013-05-23 14:44:00,57.0,45.8,30.02,South,187,5.0,15.0,66,0.00,,---,0.07,VWS V14.00,2013-05-23 21:44:00,
2013-05-23 14:49:00,56.8,46.0,30.02,SSW,209,5.0,15.0,67,0.00,,---,0.07,VWS V14.00,2013-05-23 21:49:00,
2013-05-23 14:54:00,56.8,46.8,30.02,SSW,201,9.0,15.0,69,0.00,,---,0.07,VWS V14.00,2013-05-23 21:54:00,
2013-05-23 15:00:00,56.7,46.3,30.02,South,179,6.0,15.0,68,0.00,,---,0.07,VWS V14.00,2013-05-23 22:00:00,
2013-05-23 15:05:00,56.4,46.4,30.02,SW,219,5.0,10.0,69,0.00,,---,0.07,VWS V14.00,2013-05-23 22:05:00,
2013-05-23 15:10:00,55.6,48.2,30.03,SSW,197,11.0,18.0,76,0.00,,---,0.07,VWS V14.00,2013-05-23 22:10:00,
2013-05-23 15:15:00,53.6,47.3,30.03,SSW,209,6.0,18.0,79,0.00,,---,0.07,VWS V14.00,2013-05-23 22:15:00,
2013-05-23 15:20:00,52.2,46.9,30.03,SSE,161,2.0,18.0,82,0.01,,---,0.08,VWS V14.00,2013-05-23 22:20:00,
2013-05-23 15:25:00,51.7,47.7,30.03,South,180,1.0,18.0,86,0.01,,---,0.08,VWS V14.00,2013-05-23 22:25:00,
2013-05-23 15:30:00,51.7,48.3,30.03,South,181,2.0,18.0,88,0.01,,---,0.08,VWS V14.00,2013-05-23 22:30:00,
2013-05-23 15:35:00,51.8,48.1,30.03,SW,229,4.0,7.0,87,0.01,,---,0.08,VWS V14.00,2013-05-23 22:35:00,
2013-05-23 15:40:00,52.1,48.4,30.02,SSW,199,1.0,7.0,87,0.01,,---,0.08,VWS V14.00,2013-05-23 22:40:00,
2013-05-23 15:45:00,52.5,48.8,30.02,South,186,3.0,7.0,87,0.01,,---,0.08,VWS V14.00,2013-05-23 22:45:00,
2013-05-23 15:50:00,52.9,48.8,30.02,SW,232,5.0,7.0,86,0.01,,---,0.08,VWS V14.00,2013-05-23 22:50:00,
2013-05-23 15:55:00,53.3,48.3,30.03,South,187,2.0,7.0,83,0.01,,---,0.08,VWS V14.00,2013-05-23 22:55:00,
2013-05-23 16:00:00,53.5,48.5,30.03,SE,131,8.0,9.0,83,0.01,,---,0.08,VWS V14.00,2013-05-23 23:00:00,
2013-05-23 16:05:00,53.7,49.0,30.03,South,188,3.0,7.0,84,0.02,,---,0.09,VWS V14.00,2013-05-23 23:05:00,
2013-05-23 16:10:00,52.6,47.9,30.03,South,173,7.0,11.0,84,0.04,,---,0.11,VWS V14.00,2013-05-23 23:10:00,
2013-05-23 16:15:00,51.6,47.6,30.03,SSW,199,2.0,11.0,86,0.04,,---,0.11,VWS V14.00,2013-05-23 23:15:00,
2013-05-23 16:20:00,51.1,47.7,30.03,South,176,4.0,11.0,88,0.04,,---,0.11,VWS V14.00,2013-05-23 23:20:00,
2013-05-23 16:25:00,50.9,47.8,30.03,SSW,192,1.0,11.0,89,0.05,,---,0.12,VWS V14.00,2013-05-23 23:25:00,
2013-05-23 16:30:00,51.0,48.2,30.03,South,182,2.0,11.0,90,0.05,,---,0.12,VWS V14.00,2013-05-23 23:30:00,
2013-05-23 16:35:00,51.1,48.3,30.03,SSW,207,2.0,9.0,90,0.04,,---,0.12,VWS V14.00,2013-05-23 23:35:00,
2013-05-23 16:40:00,51.3,48.2,30.03,South,181,4.0,9.0,89,0.04,,---,0.12,VWS V14.00,2013-05-23 23:40:00,
2013-05-23 16:45:00,51.4,48.0,30.02,SSE,147,4.0,9.0,88,0.04,,---,0.12,VWS V14.00,2013-05-23 23:45:00,
2013-05-23 16:50:00,51.6,48.2,30.02,SSE,168,6.0,9.0,88,0.04,,---,0.12,VWS V14.00,2013-05-23 23:50:00,
2013-05-23 16:55:00,51.8,48.1,30.02,SSW,213,4.0,9.0,87,0.04,,---,0.12,VWS V14.00,2013-05-23 23:55:00,
2013-05-23 17:00:00,51.9,48.2,30.02,SE,146,4.0,9.0,87,0.04,,---,0.12,VWS V14.00,2013-05-24 00:00:00,
2013-05-23 17:05:00,52.1,48.4,30.02,SSE,163,2.0,4.0,87,0.04,,---,0.12,VWS V14.00,2013-05-24 00:05:00,
2013-05-23 17:10:00,52.3,48.2,30.02,SE,134,4.0,9.0,86,0.04,,---,0.12,VWS V14.00,2013-05-24 00:10:00,
2013-05-23 17:15:00,52.5,48.4,30.02,SSW,203,3.0,9.0,86,0.04,,---,0.12,VWS V14.00,2013-05-24 00:15:00,
2013-05-23 17:20:00,52.6,47.9,30.02,SSE,161,4.0,11.0,84,0.04,,---,0.12,VWS V14.00,2013-05-24 00:20:00,
2013-05-23 17:25:00,52.6,48.2,30.02,SE,146,4.0,11.0,85,0.04,,---,0.12,VWS V14.00,2013-05-24 00:25:00,
2013-05-23 17:30:00,52.2,47.8,30.02,South,189,7.0,11.0,85,0.05,,---,0.13,VWS V14.00,2013-05-24 00:30:00,
2013-05-23 17:35:00,51.8,47.8,30.02,SSE,155,4.0,6.0,86,0.02,,---,0.14,VWS V14.00,2013-05-24 00:35:00,
2013-05-23 17:40:00,51.3,47.9,30.03,SSW,196,2.0,8.0,88,0.05,,---,0.17,VWS V14.00,2013-05-24 00:40:00,
2013-05-23 17:45:00,50.9,47.8,30.02,SSE,161,4.0,8.0,89,0.08,,---,0.20,VWS V14.00,2013-05-24 00:45:00,
2013-05-23 17:50:00,50.5,47.7,30.02,SSE,158,4.0,8.0,90,0.09,,---,0.21,VWS V14.00,2013-05-24 00:50:00,
2013-05-23 17:55:00,50.3,47.8,30.02,SSE,159,2.0,8.0,91,0.09,,---,0.21,VWS V14.00,2013-05-24 00:55:00,
2013-05-23 18:00:00,50.4,48.2,30.02,SE,134,2.0,8.0,92,0.09,,---,0.21,VWS V14.00,2013-05-24 01:00:00,
2013-05-23 18:05:00,50.5,48.3,30.02,SSE,151,0.0,2.0,92,0.10,,---,0.22,VWS V14.00,2013-05-24 01:05:00,
2013-05-23 18:10:00,50.5,48.6,30.02,South,178,0.0,2.0,93,0.10,,---,0.22,VWS V14.00,2013-05-24 01:10:00,
2013-05-23 18:15:00,50.5,48.3,30.02,SE,143,1.0,6.0,92,0.11,,---,0.23,VWS V14.00,2013-05-24 01:15:00,
2013-05-23 18:20:00,50.6,48.4,30.02,SSW,194,1.0,6.0,92,0.11,,---,0.23,VWS V14.00,2013-05-24 01:20:00,
2013-05-23 18:25:00,50.6,48.4,30.02,SSE,161,1.0,6.0,92,0.12,,---,0.24,VWS V14.00,2013-05-24 01:25:00,
2013-05-23 18:30:00,50.5,48.3,30.02,SSE,165,0.0,6.0,92,0.12,,---,0.24,VWS V14.00,2013-05-24 01:30:00,
2013-05-23 18:35:00,50.5,48.3,30.01,SSW,198,3.0,3.0,92,0.12,,---,0.25,VWS V14.00,2013-05-24 01:35:00,
2013-05-23 18:40:00,50.3,48.1,30.02,SSW,198,3.0,7.0,92,0.14,,---,0.27,VWS V14.00,2013-05-24 01:40:00,
2013-05-23 18:45:00,50.2,48.3,30.02,South,190,2.0,7.0,93,0.17,,---,0.30,VWS V14.00,2013-05-24 01:45:00,
2013-05-23 18:50:00,50.1,48.2,30.01,SSE,167,4.0,7.0,93,0.18,,---,0.31,VWS V14.00,2013-05-24 01:50:00,
2013-05-23 18:55:00,50.1,48.4,30.01,SSE,153,0.0,7.0,94,0.19,,---,0.32,VWS V14.00,2013-05-24 01:55:00,
2013-05-23 19:00:00,50.0,48.3,30.01,South,175,4.0,7.0,94,0.20,,---,0.33,VWS V14.00,2013-05-24 02:00:00,
2013-05-23 19:05:00,50.0,48.3,30.01,South,169,4.0,6.0,94,0.12,,---,0.33,VWS V14.00,2013-05-24 02:05:00,
2013-05-23 19:10:00,50.1,48.4,30.01,South,170,5.0,6.0,94,0.13,,---,0.34,VWS V14.00,2013-05-24 02:10:00,
2013-05-23 19:15:00,50.0,48.3,30.01,South,182,1.0,7.0,94,0.13,,---,0.34,VWS V14.00,2013-05-24 02:15:00,
2013-05-23 19:20:00,50.1,48.4,30.02,South,182,3.0,7.0,94,0.13,,---,0.34,VWS V14.00,2013-05-24 02:20:00,
2013-05-23 19:25:00,50.2,48.5,30.02,South,172,2.0,8.0,94,0.14,,---,0.35,VWS V14.00,2013-05-24 02:25:00,
2013-05-23 19:30:00,50.2,48.5,30.02,SE,138,1.0,8.0,94,0.14,,---,0.35,VWS V14.00,2013-05-24 02:30:00,
2013-05-23 19:35:00,50.2,48.5,30.02,SSE,167,4.0,4.0,94,0.11,,---,0.36,VWS V14.00,2013-05-24 02:35:00,
2013-05-23 19:41:00,50.2,48.8,30.02,SSE,156,2.0,4.0,95,0.12,,---,0.37,VWS V14.00,2013-05-24 02:41:00,
2013-05-23 19:46:00,50.2,48.8,30.02,South,170,4.0,5.0,95,0.13,,---,0.38,VWS V14.00,2013-05-24 02:46:00,
2013-05-23 19:51:00,50.0,48.6,30.01,South,180,3.0,5.0,95,0.14,,---,0.39,VWS V14.00,2013-05-24 02:51:00,
2013-05-23 19:56:00,49.8,48.2,30.02,SSE,154,2.0,5.0,94,0.15,,---,0.40,VWS V14.00,2013-05-24 02:56:00,
2013-05-23 20:01:00,49.7,48.3,30.02,South,173,2.0,5.0,95,0.15,,---,0.40,VWS V14.00,2013-05-24 03:01:00,
2013-05-23 20:06:00,49.5,48.1,30.02,SE,132,1.0,4.0,95,0.08,,---,0.41,VWS V14.00,2013-05-24 03:06:00,
2013-05-23 20:11:00,49.4,48.0,30.01,South,178,1.0,4.0,95,0.09,,---,0.42,VWS V14.00,2013-05-24 03:11:00,
2013-05-23 20:16:00,49.4,48.0,30.01,South,178,2.0,4.0,95,0.09,,---,0.42,VWS V14.00,2013-05-24 03:16:00,
2013-05-23 20:21:00,49.2,47.8,30.02,South,185,2.0,5.0,95,0.10,,---,0.43,VWS V14.00,2013-05-24 03:21:00,
2013-05-23 20:26:00,49.2,47.8,30.01,South,172,4.0,8.0,95,0.11,,---,0.44,VWS V14.00,2013-05-24 03:26:00,
2013-05-23 20:31:00,49.1,47.7,30.01,South,176,4.0,8.0,95,0.12,,---,0.45,VWS V14.00,2013-05-24 03:31:00,
2013-05-23 20:36:00,49.1,47.7,30.01,South,173,2.0,4.0,95,0.09,,---,0.45,VWS V14.00,2013-05-24 03:36:00,
2013-05-23 20:41:00,49.0,47.6,30.01,South,178,2.0,6.0,95,0.10,,---,0.46,VWS V14.00,2013-05-24 03:41:00,
2013-05-23 20:46:00,49.1,48.0,30.01,SSE,168,1.0,6.0,96,0.10,,---,0.46,VWS V14.00,2013-05-24 03:46:00,
2013-05-23 20:51:00,49.1,48.0,30.01,South,171,2.0,6.0,96,0.10,,---,0.46,VWS V14.00,2013-05-24 03:51:00,
2013-05-23 20:56:00,49.1,48.0,30.01,South,180,3.0,6.0,96,0.11,,---,0.47,VWS V14.00,2013-05-24 03:56:00,
2013-05-23 21:01:00,49.1,48.0,30.01,SSW,206,3.0,6.0,96,0.11,,---,0.47,VWS V14.00,2013-05-24 04:01:00,
2013-05-23 21:02:00,49.1,47.7,30.01,South,170,4.0,4.0,95,0.07,,---,0.48,VWS V14.00,2013-05-24 04:02:00,
2013-05-23 21:07:00,49.0,47.6,30.01,SSW,199,3.0,6.0,95,0.07,,---,0.48,VWS V14.00,2013-05-24 04:07:00,
2013-05-23 21:12:00,48.9,47.5,30.01,South,184,2.0,7.0,95,0.07,,---,0.48,VWS V14.00,2013-05-24 04:12:00,
2013-05-23 21:17:00,48.9,47.5,30.01,South,171,4.0,7.0,95,0.08,,---,0.49,VWS V14.00,2013-05-24 04:17:00,
2013-05-23 21:22:00,49.0,47.6,30.01,SSW,194,5.0,7.0,95,0.08,,---,0.49,VWS V14.00,2013-05-24 04:22:00,
2013-05-23 21:27:00,48.9,47.5,30.01,SSW,207,6.0,7.0,95,0.09,,---,0.50,VWS V14.00,2013-05-24 04:27:00,
2013-05-23 21:32:00,48.9,47.5,30.01,South,170,4.0,4.0,95,0.05,,---,0.50,VWS V14.00,2013-05-24 04:32:00,
2013-05-23 21:37:00,49.0,47.6,30.02,SSE,166,4.0,6.0,95,0.05,,---,0.50,VWS V14.00,2013-05-24 04:37:00,
2013-05-23 21:42:00,49.1,47.7,30.02,SSE,155,4.0,6.0,95,0.06,,---,0.51,VWS V14.00,2013-05-24 04:42:00,
2013-05-23 21:47:00,49.1,47.7,30.02,SW,216,2.0,6.0,95,0.06,,---,0.51,VWS V14.00,2013-05-24 04:47:00,
2013-05-23 21:52:00,49.1,47.7,30.02,SSE,155,4.0,6.0,95,0.06,,---,0.51,VWS V14.00,2013-05-24 04:52:00,
2013-05-23 21:57:00,49.1,47.7,30.02,SE,126,5.0,7.0,95,0.06,,---,0.51,VWS V14.00,2013-05-24 04:57:00,
2013-05-23 22:02:00,49.0,47.6,30.02,SSE,161,4.0,4.0,95,0.04,,---,0.52,VWS V14.00,2013-05-24 05:02:00,
2013-05-23 22:07:00,49.0,47.6,30.02,South,169,2.0,7.0,95,0.04,,---,0.52,VWS V14.00,2013-05-24 05:07:00,
2013-05-23 22:12:00,49.1,47.7,30.02,South,180,3.0,7.0,95,0.04,,---,0.52,VWS V14.00,2013-05-24 05:12:00,
2013-05-23 22:17:00,49.1,47.7,30.02,SSE,163,4.0,7.0,95,0.04,,---,0.52,VWS V14.00,2013-05-24 05:17:00,
2013-05-23 22:22:00,49.1,48.0,30.02,SSE,157,5.0,7.0,96,0.04,,---,0.52,VWS V14.00,2013-05-24 05:22:00,
2013-05-23 22:27:00,49.0,47.6,30.02,SSW,194,4.0,7.0,95,0.04,,---,0.52,VWS V14.00,2013-05-24 05:27:00,
2013-05-23 22:32:00,49.1,48.0,30.02,SSW,207,2.0,2.0,96,0.02,,---,0.52,VWS V14.00,2013-05-24 05:32:00,
2013-05-23 22:37:00,49.1,48.0,30.02,South,171,2.0,5.0,96,0.02,,---,0.52,VWS V14.00,2013-05-24 05:37:00,
2013-05-23 22:42:00,49.1,48.0,30.02,SSE,155,2.0,5.0,96,0.02,,---,0.52,VWS V14.00,2013-05-24 05:42:00,
2013-05-23 22:47:00,49.1,48.0,30.02,SSW,192,2.0,5.0,96,0.02,,---,0.52,VWS V14.00,2013-05-24 05:47:00,
2013-05-23 22:52:00,49.1,48.0,30.02,South,169,2.0,7.0,96,0.03,,---,0.53,VWS V14.00,2013-05-24 05:52:00,
2013-05-23 22:57:00,49.1,48.0,30.02,SSW,193,5.0,7.0,96,0.03,,---,0.53,VWS V14.00,2013-05-24 05:57:00,
2013-05-23 23:02:00,49.0,47.9,30.02,ESE,121,4.0,5.0,96,0.02,,---,0.54,VWS V14.00,2013-05-24 06:02:00,
2013-05-23 23:07:00,49.1,48.0,30.02,SSW,195,3.0,7.0,96,0.02,,---,0.54,VWS V14.00,2013-05-24 06:07:00,
2013-05-23 23:12:00,49.1,48.0,30.01,SE,146,1.0,7.0,96,0.02,,---,0.54,VWS V14.00,2013-05-24 06:12:00,
2013-05-23 23:17:00,49.1,48.0,30.01,SSW,193,4.0,7.0,96,0.02,,---,0.54,VWS V14.00,2013-05-24 06:17:00,
2013-05-23 23:22:00,49.2,48.1,30.01,South,185,2.0,7.0,96,0.02,,---,0.54,VWS V14.00,2013-05-24 06:22:00,
2013-05-23 23:27:00,49.2,48.1,30.01,SSW,197,2.0,7.0,96,0.03,,---,0.55,VWS V14.00,2013-05-24 06:27:00,
2013-05-23 23:32:00,49.2,48.1,30.01,SSE,162,2.0,4.0,96,0.03,,---,0.55,VWS V14.00,2013-05-24 06:32:00,
2013-05-23 23:37:00,49.1,48.0,30.01,SSE,165,4.0,7.0,96,0.03,,---,0.55,VWS V14.00,2013-05-24 06:37:00,
2013-05-23 23:42:00,49.2,48.1,30.01,South,172,2.0,7.0,96,0.03,,---,0.55,VWS V14.00,2013-05-24 06:42:00,
2013-05-23 23:47:00,49.1,48.0,30.01,SSW,198,5.0,8.0,96,0.03,,---,0.55,VWS V14.00,2013-05-24 06:47:00,
2013-05-23 23:52:00,49.1,48.0,30.01,SSW,204,2.0,8.0,96,0.03,,---,0.55,VWS V14.00,2013-05-24 06:52:00,
2013-05-23 23:57:00,49.1,48.0,30.01,South,169,6.0,8.0,96,0.04,,---,0.56,VWS V14.00,2013-05-24 06:57:00,